PROGRESS MS-29

导读 | 星芒AI

PROGRESS MS-29 是俄罗斯“进步”系列货运飞船的最新型号,主要用于向国际空间站(ISS)运送燃料、氧气、水和补给物资。该飞船由俄罗斯国家航天集团(Roscosmos)研制,采用现代化推进系统和增强的自动化对接功能,提高了任务可靠性和效率。预计该型号将在未来承担更多国际空间任务,支持长期载人航天活动。

基本信息
目录编号:
62030
目录名称:
PROGRESS MS-29
国际标识:
2024-215A
轨道中心:
EARTH
卫星名称:
PROGRESS MS-29
卫星全名:
PROGRESS MS-29
卫星状态:
已陨落 最后检测时间 2025-07-02
发射日期:
2024-11-21 UTC
国别 :
俄罗斯(独联体) (CIS)
星等 :
--
轨道信息
数据来源 国际轨道数据
星历时间: 2025-07-01T22:27:47+0800
轨道信息已过期119天
半长轴: 6793.931km
偏心率: 0.0002078
轨道倾角: 51.636°
近地点辐角 320.530°
升交点赤经 235.624°
平近点角 198.271°
近地点: 414.384km
远地点: 417.208km
周期: 92.884分钟
每日圈数: 15.503192
详细信息
使用方式:
暂无